Погода в Престатине

Великобритания     53°19′55″N   3°23′55″W
темп.,
°C
ветер,
м/с
пор.,
м/с
влажн.,
%
обл.,
%
осадки,
мм/ч
давл.,
гПа
погр.,
м
12 апреля, пн
пн1201:00−2юз229295 0.3 102660
04:00−1юз119787 0.1 102645
07:00−1юз229696 0.2 102788
10:00+5ссз24605 0.1 10281323
13:00+7ссз44465 0.1 10291423
16:00+7ссз455211 0.0 10301097
19:00+5ссз236672 0.0 1030273
22:00+2ююз11815 0.0 103238
13 апреля, вт
вт1301:00−1ююз22965 0.0 103241
04:000ююз229674 0.0 103238
07:00+3ю238386 0.0 103278
10:00+8с126145 0.0 1033902
13:00+8ссз236785 0.1 1033812
16:00+8сз357821 0.7 1032733
19:00+6ссз23805 0.7 1032379
22:00+2юз11955 0.0 103314
14 апреля, ср
ср1401:00+1ююз21965 0.0 103319
04:00+1ююз21945 0.0 103317
07:00+1ююз21935 0.0 103319
10:00+9всв12635 0.0 1034608
13:00+11св325268 0.0 10331577
16:00+11ссв325012 0.1 10321342
19:00+8с23722 0.1 1033124
22:00+3юз11927 0.0 103410
15 апреля, чт
чт1501:00+2ю21895 0.0 103416
04:00+1ююв22915 0.0 103343
07:00+1ююв23905 0.0 103464
10:00+8вюв34595 0.0 1033639
13:00+10в34465 0.0 10321395
16:00+10всв334440 0.0 10311714
19:00+8всв24604 0.0 1031158
22:00+2ююв38875 0.0 1032165
16 апреля, пт
пт1601:000ююв35892 0.0 1033101
04:00−1ююв34960 0.0 103372
07:00−1ююв24932 0.0 103379
10:00+7юв34510 0.0 1033886
13:00+10вюв33405 0.0 10321505
16:00+10в34425 0.0 10311673
19:00+8вюв25562 0.0 1031290
22:00